Warning: Javascript must be enabled to use all the features on this page!


Page Loading - Please Wait...

* We've detected you're using a mobile device. Find our Next Generation Station Page here.
Click to hideNews Bulletins

Peak Streamflow for the Nation

USGS 01144000 WHITE RIVER AT WEST HARTFORD, VT

Windsor County, Vermont
Hydrologic Unit Code 01080105
Latitude  43°42'51", Longitude  72°25'07" NAD27
Drainage area 690  square miles
Gage datum 374.53 feet above NGVD29
Output formats
Table
Graph
Tab-separated file
peakfq (watstore) format
Reselect output format
Water
Year
Date Gage
Height
(feet)
Stream-
flow
(cfs)
1916 1916-04-02 10.80 11,800
1917 1917-06-12 12.00 15,300
1918 1918-04-03 10.40 10,700
1919 1919-03-28 16.00 30,000
1920 1920-04-13 13.00 18,600
1921 1921-03-21 12.60 17,200
1922 1922-04-12 17.10 35,500
1923 1923-04-06 12.70 17,600
1924 1924-04-19 11.30 13,200
1925 1925-03-29 16.25 31,200
1926 1926-04-25 13.30 19,700
1927 1927-03-14 13.70 21,100
1928 1927-11-04 29.30 120,000
1929 1929-04-26 10.77 12,800
1930 1930-01-09 10.68 12,600
1931 1931-04-11 11.25 14,200
1932 1932-04-12 11.89 15,000
1933 1933-04-18 14.32 23,300
1934 1934-04-12 14.142 22,600
1935 1935-01-10 13.44 20,000
1936 1936-03-18 18.89 45,400
1937 1937-05-15 14.26 23,300
1938 1938-09-22 19.26 47,600
1939 1939-04-22 12.20 15,900
1940 1940-05-21 13.44 19,200
1941 1941-04-15 9.78 9,180
1942 1942-04-16 11.72 14,500
1943 1943-04-26 10.102 9,950
1944 1944-04-10 13.19 18,600
1945 1945-04-26 12.04 15,200
1946 1945-10-02 13.32 19,000
1947 1947-06-03 16.60 31,100
1948 1948-03-22 13.50 19,800
1949 1948-12-31 16.58 31,000
1950 1950-04-05 12.53 16,700
1951 1950-11-26   18,0002
1952 1952-06-01 16.11 29,100
1953 1953-03-27 15.38 26,300
1954 1954-04-08 11.342 13,300
1955 1955-04-15 11.872 14,800
1956 1956-04-30 12.41 16,400
1957 1957-01-23 10.52 11,100
1958 1958-04-22 13.62 20,100
1959 1959-04-03 10.602 11,300
1960 1959-11-28 13.63 20,200
1961 1961-04-23 10.732 11,600
1962 1962-04-08 11.97 15,100
1963 1963-04-04 9.79 8,920
1964 1964-03-06 14.56 23,300
1965 1965-04-22 7.132 4,100
1966 1966-03-25 8.782 6,950
1967 1967-04-03 13.41 19,500
1968 1968-03-22   16,0002
1969 1969-04-19 13.88 21,000
1970 1970-04-25 13.112 18,500
1971 1971-05-04 11.72 14,300
1972 1972-05-05 14.26 22,300
1973 1973-06-30 19.13 42,300
1974 1973-12-21 13.74 20,500
1975 1975-04-20 11.69 14,200
1976 1976-04-01 17.34 34,300
1977 1977-03-14 14.52 23,200
1978 1977-10-17 12.90 17,800
1979 1979-03-25 12.102 15,400
1980 1980-04-10 11.10 12,500
1981 1981-02-21 12.48 16,500
1982 1982-04-18 14.775 24,000
1983 1983-05-04 12.01 15,100
1984 1984-05-30 13.91 21,100
1985 1985-02-25 10.302 10,300
1986 1986-03-31 12.84 17,600
1987 1987-04-01 16.952 32,600
1988 1988-04-29 12.14 15,400
1989 1989-05-06 13.68 20,300
1990 1990-04-11 12.722 17,200
1991 1990-10-24 12.50 16,500
1992 1992-03-12 13.97 21,200
1993 1993-04-17 11.752 14,300
1994 1994-04-16 13.58 20,000
1995 1994-12-06 8.822 6,920
1996 1996-01-20 15.09 25,100
1997 1996-10-21 12.012 15,000
1998 1998-06-27 17.38 34,500
1999 1999-09-17 11.282 13,000
2000 2000-04-04 13.05 18,200
2001 2000-12-18 16.04 28,800
2002 2002-04-14 17.78 36,300
2003 2003-03-30 12.452 16,800
2004 2003-10-29 12.65 17,400
2005 2005-04-03 14.39 23,100
2006 2006-01-19 13.25 19,300
2007 2006-10-29 11.74 14,700
2008 2008-04-12 13.42 19,800
2009 2009-04-04 10.64 11,700
2010 2010-03-23 13.41 19,800
2011 2011-08-29 28.36 90,100
2012 2012-03-09 9.25 8,220
2013 2013-04-20 11.37 13,300
2014 2014-04-16 14.11 21,500
2015 2015-04-14 10.74 11,700
2016 2016-02-25 12.58 16,800
2017 2017-07-02 13.91 20,900
2018 2018-01-13 12.032 15,200
2019 2019-04-15 15.66 26,900
2020 2020-04-14 11.04 12,500
2021 2021-03-26 11.23 13,000
?
  Peak Gage-Height Qualification Codes.
?
  Peak Streamflow Qualification Codes.